Location: Gugi
(45.4667°N, 11.1000°E)
Time: 02:03:18
(UTC+00:00)

Cosmos 2263 Rocket - Pass Details

Date: 25 February 2020
Orbit: 822 x 850 km, 71.0° (Epoch: 08 April)

Event Time Altitude Azimuth Distance (km) Brightness Sun altitude
Rises 21:10:38 0° 337° (NNW) 3,416 6.0 -43.1°
Reaches altitude 10° 21:13:12 10° 344° (NNW) 2,480 5.1 -43.4°
Enters shadow 21:13:41 12° 345° (NNW) 2,310 4.9 -43.5°
